Regional Weather Roundup
Issued by NWS

Home | Current Version | Previous Version | Text Only | Print | Product List | Glossary Off
Versions: 1 2 3 4 5 6 7 8 9 10 11 12 13 14 15 16 17 18 19 20 21 22 23 24 25 26 27 28 29 30 31 32 33 34 35 36 37 38 39 40 41 42 43 44 45 46 47 48 49 50

000
ASUS45 KSLC 280310
RWRUT

UTAH REGIONAL WEATHER ROUNDUP
NATIONAL WEATHER SERVICE SALT LAKE CITY UT
900 PM MDT MON JUL 27 2015

UTZ001>011-023>025-280400-

NORTHERN UTAH

CITY           SKY/WX    TMP DP  RH WIND       PRES   REMARKS
BRIGHAM CITY   CLEAR     69  29  22 NW10      30.10R
HILL AFB       CLEAR     69  42  36 N5        30.11R
LOGAN            N/A    N/A N/A N/A MISG      30.11R
OGDEN          CLEAR     69  41  36 N6        30.09R
PROVO AIRPORT  NOT AVBL
SALT LAKE CITY PTCLDY    71  41  33 N9        30.07R
VERNAL         CLEAR     77  15   9 NW13G22   29.97R
WENDOVER       CLEAR     73  30  20 NW17      30.08R
HEBER CITY     CLEAR     64  36  34 N12       30.11R
WEST JORDAN    CLEAR     70  39  32 N9        30.10R

$$

UTZ012>022-026-027-280400-

SOUTHERN/CENTRAL UTAH

CITY           SKY/WX    TMP DP  RH WIND       PRES   REMARKS
BLANDING       CLEAR     78  25  13 W9        30.12R
BRYCE CANYON   CLEAR     62  21  20 SW7       30.21R
CEDAR CITY     CLEAR     76  15  10 SW12      30.05R
DELTA          CLEAR     75  29  18 N13       30.06R
HANKSVILLE     CLEAR     86  21   9 W7        29.90R
MILFORD        CLEAR     78  33  19 N20       30.01R
MOAB/CYNLANDS  CLEAR     87  27  11 W10       29.88R
PRICE          CLEAR     73  33  23 NW18      30.06R
ST GEORGE      CLEAR     91  28  10 SW8       29.87R
KANAB          CLEAR     79  27  14 W6        30.06R

$$

REGIONAL REPORTS     COLORADO/ARIZONA

CITY           SKY/WX    TMP DP  RH WIND       PRES   REMARKS
CRAIG, CO      CLEAR     71  38  29 NW9       30.06R
GRAND JUNCTION CLEAR     81  27  14 S7        29.92R
RIFLE          CLEAR     79  25  13 W7        29.97R
MONTROSE       CLEAR     78  32  18 S7        30.04R
CORTEZ         CLEAR     68  42  38 CALM      30.06R
PAGE, AZ       CLEAR     91  17   6 W8        29.92R
GRAND CANYON   CLEAR     69  17  13 SW5       30.17R
KINGMAN        CLEAR     84   6   5 SW10      29.93R
FLAGSTAFF      CLEAR     70  39  32 W5        30.23R

$$

REGIONAL REPORTS    NEVADA/IDAHO/WYOMING

CITY           SKY/WX    TMP DP  RH WIND       PRES   REMARKS
LAS VEGAS, NV  CLEAR     98  22   6 SW9       29.74R HX  91
ELY            CLEAR     70  20  15 NW9       30.15R
ELKO           CLEAR     68  23  18 W8        30.15R
POCATELLO, ID  CLEAR     55  42  61 N7        30.15R
BURLEY         CLEAR     61  33  35 W8        30.13R
EVANSTON, WY   CLEAR     56  33  42 W14       30.22R
ROCK SPRINGS   CLEAR     60  31  33 W24G36    30.15R
KEMMERER       CLEAR     52  34  50 W9        30.22R

$$


USA.gov is the U.S. government's official web portal to all federal, state and local government web resources and services.